owner,sensor,date,latitude,longitude,vertical_datum,sea_water_practical_salinity,qcFlag 
NERRS,ioos:station:NOAA.NERRS:gndbcwq:1,2016-03-01T19:45:00Z,30.3836,-88.4364,0.71,16.0,1111122 
NERRS,ioos:station:NOAA.NERRS:gndbcwq:1,2016-03-02T12:45:00Z,30.3836,-88.4364,0.13,8.8,1111122 
NERRS,ioos:station:NOAA.NERRS:gndbcwq:1,2016-03-02T13:45:00Z,30.3836,-88.4364,0.22,9.8,1111122 
NERRS,ioos:station:NOAA.NERRS:gndbcwq:1,2016-03-03T00:45:00Z,30.3836,-88.4364,0.62,13.4,1111122 
NERRS,ioos:station:NOAA.NERRS:gndbcwq:1,2016-03-03T01:45:00Z,30.3836,-88.4364,0.56,12.9,1111122 
NERRS,ioos:station:NOAA.NERRS:gndbcwq:1,2016-03-03T13:45:00Z,30.3836,-88.4364,0.46,13.0,1111122 
NERRS,ioos:station:NOAA.NERRS:gndbcwq:1,2016-03-03T14:45:00Z,30.3836,-88.4364,0.51,12.7,1111122 
NERRS,ioos:station:NOAA.NERRS:gndbcwq:1,2016-03-03T15:45:00Z,30.3836,-88.4364,0.47,12.1,1111122 
NERRS,ioos:station:NOAA.NERRS:gndbcwq:1,2016-03-03T16:45:00Z,30.3836,-88.4364,0.48,13.6,1111122 
NERRS,ioos:station:NOAA.NERRS:gndbcwq:1,2016-03-03T17:45:00Z,30.3836,-88.4364,0.55,13.5,1111122 
NERRS,ioos:station:NOAA.NERRS:gndbcwq:1,2016-03-03T18:45:00Z,30.3836,-88.4364,0.55,13.7,1111122 
NERRS,ioos:station:NOAA.NERRS:gndbcwq:1,2016-03-03T19:45:00Z,30.3836,-88.4364,0.57,13.3,1111122 
NERRS,ioos:station:NOAA.NERRS:gndbcwq:1,2016-03-03T20:45:00Z,30.3836,-88.4364,0.61,15.7,1111122 
NERRS,ioos:station:NOAA.NERRS:gndbcwq:1,2016-03-03T21:45:00Z,30.3836,-88.4364,0.67,16.5,1111122 
NERRS,ioos:station:NOAA.NERRS:gndbcwq:1,2016-03-03T22:45:00Z,30.3836,-88.4364,0.73,17.0,1111122 
NERRS,ioos:station:NOAA.NERRS:gndbcwq:1,2016-03-03T23:45:00Z,30.3836,-88.4364,0.76,17.0,1111122 
NERRS,ioos:station:NOAA.NERRS:gndbcwq:1,2016-03-04T00:45:00Z,30.3836,-88.4364,0.74,17.0,1111122 
NERRS,ioos:station:NOAA.NERRS:gndbcwq:1,2016-03-04T01:45:00Z,30.3836,-88.4364,0.68,16.9,1111122 
NERRS,ioos:station:NOAA.NERRS:gndbcwq:1,2016-03-04T02:45:00Z,30.3836,-88.4364,0.63,16.4,1111122 
NERRS,ioos:station:NOAA.NERRS:gndbcwq:1,2016-03-04T03:45:00Z,30.3836,-88.4364,0.51,15.6,1111122 
NERRS,ioos:station:NOAA.NERRS:gndbcwq:1,2016-03-04T04:45:00Z,30.3836,-88.4364,0.39,14.7,1111122 
NERRS,ioos:station:NOAA.NERRS:gndbcwq:1,2016-03-04T05:45:00Z,30.3836,-88.4364,0.31,11.9,1111122 
NERRS,ioos:station:NOAA.NERRS:gndbcwq:1,2016-03-04T06:45:00Z,30.3836,-88.4364,0.18,11.3,1111122 
NERRS,ioos:station:NOAA.NERRS:gndbcwq:1,2016-03-04T07:45:00Z,30.3836,-88.4364,0.07,10.5,1111122 
NERRS,ioos:station:NOAA.NERRS:gndbcwq:1,2016-03-04T09:45:00Z,30.3836,-88.4364,0.05,8.4,1111122 
NERRS,ioos:station:NOAA.NERRS:gndbcwq:1,2016-03-04T10:45:00Z,30.3836,-88.4364,0.09,9.4,1111122 
NERRS,ioos:station:NOAA.NERRS:gndbcwq:1,2016-03-04T11:45:00Z,30.3836,-88.4364,0.14,9.8,1111122 
NERRS,ioos:station:NOAA.NERRS:gndbcwq:1,2016-03-04T12:45:00Z,30.3836,-88.4364,0.18,10.3,1111122 
NERRS,ioos:station:NOAA.NERRS:gndbcwq:1,2016-03-04T13:45:00Z,30.3836,-88.4364,0.21,10.4,1111122 
NERRS,ioos:station:NOAA.NERRS:gndbcwq:1,2016-03-04T14:45:00Z,30.3836,-88.4364,0.21,10.5,1111122 
NERRS,ioos:station:NOAA.NERRS:gndbcwq:1,2016-03-04T15:45:00Z,30.3836,-88.4364,0.3,10.8,1111122 
NERRS,ioos:station:NOAA.NERRS:gndbcwq:1,2016-03-04T16:45:00Z,30.3836,-88.4364,0.38,12.5,1111122 
NERRS,ioos:station:NOAA.NERRS:gndbcwq:1,2016-03-04T17:45:00Z,30.3836,-88.4364,0.44,13.3,1111122 
NERRS,ioos:station:NOAA.NERRS:gndbcwq:1,2016-03-04T18:45:00Z,30.3836,-88.4364,0.49,13.5,1111122 
NERRS,ioos:station:NOAA.NERRS:gndbcwq:1,2016-03-04T19:45:00Z,30.3836,-88.4364,0.57,14.4,1111122 
NERRS,ioos:station:NOAA.NERRS:gndbcwq:1,2016-03-04T20:45:00Z,30.3836,-88.4364,0.64,15.5,1111122 
NERRS,ioos:station:NOAA.NERRS:gndbcwq:1,2016-03-04T21:45:00Z,30.3836,-88.4364,0.69,15.5,1111122 
NERRS,ioos:station:NOAA.NERRS:gndbcwq:1,2016-03-04T22:45:00Z,30.3836,-88.4364,0.72,16.2,1111122 
NERRS,ioos:station:NOAA.NERRS:gndbcwq:1,2016-03-04T23:45:00Z,30.3836,-88.4364,0.72,16.2,1111122 
NERRS,ioos:station:NOAA.NERRS:gndbcwq:1,2016-03-05T00:45:00Z,30.3836,-88.4364,0.68,15.9,1111122 
NERRS,ioos:station:NOAA.NERRS:gndbcwq:1,2016-03-05T01:45:00Z,30.3836,-88.4364,0.62,14.5,1111122 
NERRS,ioos:station:NOAA.NERRS:gndbcwq:1,2016-03-05T02:45:00Z,30.3836,-88.4364,0.56,14.1,1111122 
NERRS,ioos:station:NOAA.NERRS:gndbcwq:1,2016-03-05T03:45:00Z,30.3836,-88.4364,0.5,13.4,1111122 
NERRS,ioos:station:NOAA.NERRS:gndbcwq:1,2016-03-05T04:45:00Z,30.3836,-88.4364,0.45,12.3,1111122 
NERRS,ioos:station:NOAA.NERRS:gndbcwq:1,2016-03-05T05:45:00Z,30.3836,-88.4364,0.38,11.1,1111122 
NERRS,ioos:station:NOAA.NERRS:gndbcwq:1,2016-03-05T06:45:00Z,30.3836,-88.4364,0.31,10.0,1111122 
NERRS,ioos:station:NOAA.NERRS:gndbcwq:1,2016-03-05T07:45:00Z,30.3836,-88.4364,0.27,9.4,1111122 
NERRS,ioos:station:NOAA.NERRS:gndbcwq:1,2016-03-05T09:45:00Z,30.3836,-88.4364,0.12,7.8,1111122 
NERRS,ioos:station:NOAA.NERRS:gndbcwq:1,2016-03-05T10:45:00Z,30.3836,-88.4364,0.17,9.8,1111122 
NERRS,ioos:station:NOAA.NERRS:gndbcwq:1,2016-03-05T11:45:00Z,30.3836,-88.4364,0.22,10.1,1111122 
NERRS,ioos:station:NOAA.NERRS:gndbcwq:1,2016-03-05T12:45:00Z,30.3836,-88.4364,0.26,10.3,1111122 
NERRS,ioos:station:NOAA.NERRS:gndbcwq:1,2016-03-05T13:45:00Z,30.3836,-88.4364,0.28,11.5,1111122 
NERRS,ioos:station:NOAA.NERRS:gndbcwq:1,2016-03-05T14:45:00Z,30.3836,-88.4364,0.34,11.7,1111122 
NERRS,ioos:station:NOAA.NERRS:gndbcwq:1,2016-03-05T15:45:00Z,30.3836,-88.4364,0.41,12.1,1111122 
NERRS,ioos:station:NOAA.NERRS:gndbcwq:1,2016-03-05T16:45:00Z,30.3836,-88.4364,0.47,12.6,1111122 
NERRS,ioos:station:NOAA.NERRS:gndbcwq:1,2016-03-05T17:45:00Z,30.3836,-88.4364,0.52,12.7,1111122 
NERRS,ioos:station:NOAA.NERRS:gndbcwq:1,2016-03-05T18:45:00Z,30.3836,-88.4364,0.55,13.2,1111122 
NERRS,ioos:station:NOAA.NERRS:gndbcwq:1,2016-03-05T19:45:00Z,30.3836,-88.4364,0.57,13.4,1111122 
NERRS,ioos:station:NOAA.NERRS:gndbcwq:1,2016-03-05T20:45:00Z,30.3836,-88.4364,0.62,14.0,1111122 
NERRS,ioos:station:NOAA.NERRS:gndbcwq:1,2016-03-05T21:45:00Z,30.3836,-88.4364,0.65,14.5,1111122 
NERRS,ioos:station:NOAA.NERRS:gndbcwq:1,2016-03-05T22:45:00Z,30.3836,-88.4364,0.69,15.1,1111122 
NERRS,ioos:station:NOAA.NERRS:gndbcwq:1,2016-03-05T23:45:00Z,30.3836,-88.4364,0.71,15.4,1111122 
NERRS,ioos:station:NOAA.NERRS:gndbcwq:1,2016-03-06T00:45:00Z,30.3836,-88.4364,0.68,14.1,1111122 
NERRS,ioos:station:NOAA.NERRS:gndbcwq:1,2016-03-06T01:45:00Z,30.3836,-88.4364,0.66,13.5,1111122 
NERRS,ioos:station:NOAA.NERRS:gndbcwq:1,2016-03-06T02:45:00Z,30.3836,-88.4364,0.64,14.5,1111122 
NERRS,ioos:station:NOAA.NERRS:gndbcwq:1,2016-03-06T03:45:00Z,30.3836,-88.4364,0.59,14.0,1111122 
NERRS,ioos:station:NOAA.NERRS:gndbcwq:1,2016-03-06T04:45:00Z,30.3836,-88.4364,0.53,13.3,1111122 
NERRS,ioos:station:NOAA.NERRS:gndbcwq:1,2016-03-06T05:45:00Z,30.3836,-88.4364,0.46,12.2,1111122 
NERRS,ioos:station:NOAA.NERRS:gndbcwq:1,2016-03-06T06:45:00Z,30.3836,-88.4364,0.37,11.1,1111122 
NERRS,ioos:station:NOAA.NERRS:gndbcwq:1,2016-03-06T07:45:00Z,30.3836,-88.4364,0.28,10.1,1111122 
NERRS,ioos:station:NOAA.NERRS:gndbcwq:1,2016-03-06T09:45:00Z,30.3836,-88.4364,0.15,8.1,1111122 
NERRS,ioos:station:NOAA.NERRS:gndbcwq:1,2016-03-06T10:45:00Z,30.3836,-88.4364,0.12,7.8,1111122 
NERRS,ioos:station:NOAA.NERRS:gndbcwq:1,2016-03-06T11:45:00Z,30.3836,-88.4364,0.11,7.3,1111122 
NERRS,ioos:station:NOAA.NERRS:gndbcwq:1,2016-03-06T12:45:00Z,30.3836,-88.4364,0.14,8.1,1111122 
NERRS,ioos:station:NOAA.NERRS:gndbcwq:1,2016-03-06T13:45:00Z,30.3836,-88.4364,0.17,9.0,1111122 
NERRS,ioos:station:NOAA.NERRS:gndbcwq:1,2016-03-06T14:45:00Z,30.3836,-88.4364,0.24,9.4,1111122 
NERRS,ioos:station:NOAA.NERRS:gndbcwq:1,2016-03-06T15:45:00Z,30.3836,-88.4364,0.3,10.5,1111122 
NERRS,ioos:station:NOAA.NERRS:gndbcwq:1,2016-03-06T16:45:00Z,30.3836,-88.4364,0.37,11.2,1111122 
NERRS,ioos:station:NOAA.NERRS:gndbcwq:1,2016-03-06T17:45:00Z,30.3836,-88.4364,0.44,11.8,1111122 
NERRS,ioos:station:NOAA.NERRS:gndbcwq:1,2016-03-06T18:45:00Z,30.3836,-88.4364,0.45,13.3,1111122 
NERRS,ioos:station:NOAA.NERRS:gndbcwq:1,2016-03-06T19:45:00Z,30.3836,-88.4364,0.49,12.4,1111122 
NERRS,ioos:station:NOAA.NERRS:gndbcwq:1,2016-03-06T20:45:00Z,30.3836,-88.4364,0.53,13.4,1111122 
NERRS,ioos:station:NOAA.NERRS:gndbcwq:1,2016-03-06T21:45:00Z,30.3836,-88.4364,0.56,13.8,1111122 
NERRS,ioos:station:NOAA.NERRS:gndbcwq:1,2016-03-06T22:45:00Z,30.3836,-88.4364,0.6,14.2,1111122 
NERRS,ioos:station:NOAA.NERRS:gndbcwq:1,2016-03-06T23:45:00Z,30.3836,-88.4364,0.63,14.7,1111122 
NERRS,ioos:station:NOAA.NERRS:gndbcwq:1,2016-03-07T00:45:00Z,30.3836,-88.4364,0.66,14.9,1111122 
NERRS,ioos:station:NOAA.NERRS:gndbcwq:1,2016-03-07T01:45:00Z,30.3836,-88.4364,0.68,15.3,1111122 
NERRS,ioos:station:NOAA.NERRS:gndbcwq:1,2016-03-07T02:45:00Z,30.3836,-88.4364,0.69,15.4,1111122 
NERRS,ioos:station:NOAA.NERRS:gndbcwq:1,2016-03-07T03:45:00Z,30.3836,-88.4364,0.67,15.3,1111122 
NERRS,ioos:station:NOAA.NERRS:gndbcwq:1,2016-03-07T04:45:00Z,30.3836,-88.4364,0.62,12.8,1111122 
NERRS,ioos:station:NOAA.NERRS:gndbcwq:1,2016-03-07T05:45:00Z,30.3836,-88.4364,0.56,12.7,1111122 
NERRS,ioos:station:NOAA.NERRS:gndbcwq:1,2016-03-07T06:45:00Z,30.3836,-88.4364,0.49,12.5,1111122 
NERRS,ioos:station:NOAA.NERRS:gndbcwq:1,2016-03-07T07:45:00Z,30.3836,-88.4364,0.39,11.9,1111122 
NERRS,ioos:station:NOAA.NERRS:gndbcwq:1,2016-03-07T09:45:00Z,30.3836,-88.4364,0.26,10.1,1111122 
NERRS,ioos:station:NOAA.NERRS:gndbcwq:1,2016-03-07T10:45:00Z,30.3836,-88.4364,0.22,9.6,1111122 
NERRS,ioos:station:NOAA.NERRS:gndbcwq:1,2016-03-07T12:45:00Z,30.3836,-88.4364,0.3,11.2,1111122 
NERRS,ioos:station:NOAA.NERRS:gndbcwq:1,2016-03-07T13:45:00Z,30.3836,-88.4364,0.35,11.7,1111122 
NERRS,ioos:station:NOAA.NERRS:gndbcwq:1,2016-03-07T14:45:00Z,30.3836,-88.4364,0.41,12.2,1111122 
NERRS,ioos:station:NOAA.NERRS:gndbcwq:1,2016-03-07T15:45:00Z,30.3836,-88.4364,0.47,12.6,1111122 
NERRS,ioos:station:NOAA.NERRS:gndbcwq:1,2016-03-07T16:45:00Z,30.3836,-88.4364,0.5,13.8,1111122 
NERRS,ioos:station:NOAA.NERRS:gndbcwq:1,2016-03-07T18:45:00Z,30.3836,-88.4364,0.47,12.8,1111122 
NERRS,ioos:station:NOAA.NERRS:gndbcwq:1,2016-03-07T20:45:00Z,30.3836,-88.4364,0.52,13.7,1111122 
NERRS,ioos:station:NOAA.NERRS:gndbcwq:1,2016-03-08T10:45:00Z,30.3836,-88.4364,0.52,15.4,1111122 
NERRS,ioos:station:NOAA.NERRS:gndbcwq:1,2016-03-08T11:45:00Z,30.3836,-88.4364,0.48,14.4,1111122 
NERRS,ioos:station:NOAA.NERRS:gndbcwq:1,2016-03-08T12:45:00Z,30.3836,-88.4364,0.56,14.5,1111122 
NERRS,ioos:station:NOAA.NERRS:gndbcwq:1,2016-03-08T13:45:00Z,30.3836,-88.4364,0.58,14.6,1111122 
NERRS,ioos:station:NOAA.NERRS:gndbcwq:1,2016-03-08T14:45:00Z,30.3836,-88.4364,0.58,14.6,1111122 
NERRS,ioos:station:NOAA.NERRS:gndbcwq:1,2016-03-08T15:45:00Z,30.3836,-88.4364,0.61,14.6,1111122 
NERRS,ioos:station:NOAA.NERRS:gndbcwq:1,2016-03-08T16:45:00Z,30.3836,-88.4364,0.64,14.7,1111122 
NERRS,ioos:station:NOAA.NERRS:gndbcwq:1,2016-03-08T17:45:00Z,30.3836,-88.4364,0.63,14.7,1111122 
NERRS,ioos:station:NOAA.NERRS:gndbcwq:1,2016-03-08T18:45:00Z,30.3836,-88.4364,0.64,14.8,1111122 
NERRS,ioos:station:NOAA.NERRS:gndbcwq:1,2016-03-08T19:45:00Z,30.3836,-88.4364,0.63,14.9,1111122 
NERRS,ioos:station:NOAA.NERRS:gndbcwq:1,2016-03-08T20:45:00Z,30.3836,-88.4364,0.63,14.8,1111122 
NERRS,ioos:station:NOAA.NERRS:gndbcwq:1,2016-03-08T21:45:00Z,30.3836,-88.4364,0.64,15.1,1111122 
NERRS,ioos:station:NOAA.NERRS:gndbcwq:1,2016-03-08T22:45:00Z,30.3836,-88.4364,0.68,15.1,1111122 
NERRS,ioos:station:NOAA.NERRS:gndbcwq:1,2016-03-08T23:45:00Z,30.3836,-88.4364,0.72,15.2,1111122 
NERRS,ioos:station:NOAA.NERRS:gndbcwq:1,2016-03-09T00:45:00Z,30.3836,-88.4364,0.78,16.0,1111122 
NERRS,ioos:station:NOAA.NERRS:gndbcwq:1,2016-03-09T01:45:00Z,30.3836,-88.4364,0.84,16.7,1111122 
NERRS,ioos:station:NOAA.NERRS:gndbcwq:1,2016-03-09T02:45:00Z,30.3836,-88.4364,0.91,16.5,1111122 
NERRS,ioos:station:NOAA.NERRS:gndbcwq:1,2016-03-09T04:45:00Z,30.3836,-88.4364,1.02,14.7,1111122 
NERRS,ioos:station:NOAA.NERRS:gndbcwq:1,2016-03-09T05:45:00Z,30.3836,-88.4364,1.06,14.0,1111122 
NERRS,ioos:station:NOAA.NERRS:gndbcwq:1,2016-03-09T06:45:00Z,30.3836,-88.4364,1.07,13.7,1111122 
NERRS,ioos:station:NOAA.NERRS:gndbcwq:1,2016-03-09T07:45:00Z,30.3836,-88.4364,1.02,13.9,1111122 
NERRS,ioos:station:NOAA.NERRS:gndbcwq:1,2016-03-09T09:45:00Z,30.3836,-88.4364,0.89,15.0,1111122 
NERRS,ioos:station:NOAA.NERRS:gndbcwq:1,2016-03-09T10:45:00Z,30.3836,-88.4364,0.84,15.5,1111122 
NERRS,ioos:station:NOAA.NERRS:gndbcwq:1,2016-03-09T11:45:00Z,30.3836,-88.4364,0.79,15.8,1111122 
NERRS,ioos:station:NOAA.NERRS:gndbcwq:1,2016-03-09T12:45:00Z,30.3836,-88.4364,0.79,15.7,1111122 
NERRS,ioos:station:NOAA.NERRS:gndbcwq:1,2016-03-09T13:45:00Z,30.3836,-88.4364,0.83,15.8,1111122 
NERRS,ioos:station:NOAA.NERRS:gndbcwq:1,2016-03-09T14:45:00Z,30.3836,-88.4364,0.81,15.8,1111122 
NERRS,ioos:station:NOAA.NERRS:gndbcwq:1,2016-03-09T15:45:00Z,30.3836,-88.4364,0.82,15.7,1111122 
NERRS,ioos:station:NOAA.NERRS:gndbcwq:1,2016-03-09T16:45:00Z,30.3836,-88.4364,0.86,15.7,1111122 
NERRS,ioos:station:NOAA.NERRS:gndbcwq:1,2016-03-09T17:45:00Z,30.3836,-88.4364,0.89,15.4,1111122 
NERRS,ioos:station:NOAA.NERRS:gndbcwq:1,2016-03-09T18:45:00Z,30.3836,-88.4364,0.89,15.3,1111122 
NERRS,ioos:station:NOAA.NERRS:gndbcwq:1,2016-03-09T19:45:00Z,30.3836,-88.4364,0.9,15.2,1111122 
NERRS,ioos:station:NOAA.NERRS:gndbcwq:1,2016-03-09T20:45:00Z,30.3836,-88.4364,0.87,15.3,1111122 
NERRS,ioos:station:NOAA.NERRS:gndbcwq:1,2016-03-09T21:45:00Z,30.3836,-88.4364,0.85,15.4,1111122 
NERRS,ioos:station:NOAA.NERRS:gndbcwq:1,2016-03-09T22:45:00Z,30.3836,-88.4364,0.83,15.7,1111122 
NERRS,ioos:station:NOAA.NERRS:gndbcwq:1,2016-03-09T23:45:00Z,30.3836,-88.4364,0.81,15.8,1111122 
NERRS,ioos:station:NOAA.NERRS:gndbcwq:1,2016-03-10T00:45:00Z,30.3836,-88.4364,0.83,15.8,1111122 
NERRS,ioos:station:NOAA.NERRS:gndbcwq:1,2016-03-10T01:45:00Z,30.3836,-88.4364,0.87,15.7,1111122 
NERRS,ioos:station:NOAA.NERRS:gndbcwq:1,2016-03-10T02:45:00Z,30.3836,-88.4364,0.92,15.5,1111122 
NERRS,ioos:station:NOAA.NERRS:gndbcwq:1,2016-03-10T03:45:00Z,30.3836,-88.4364,0.99,15.2,1111122 
NERRS,ioos:station:NOAA.NERRS:gndbcwq:1,2016-03-10T04:45:00Z,30.3836,-88.4364,1.04,15.3,1111122 
NERRS,ioos:station:NOAA.NERRS:gndbcwq:1,2016-03-10T05:45:00Z,30.3836,-88.4364,1.06,14.7,1111122 
NERRS,ioos:station:NOAA.NERRS:gndbcwq:1,2016-03-10T06:45:00Z,30.3836,-88.4364,1.06,14.3,1111122 
NERRS,ioos:station:NOAA.NERRS:gndbcwq:1,2016-03-10T07:45:00Z,30.3836,-88.4364,1.08,13.8,1111122 
NERRS,ioos:station:NOAA.NERRS:gndbcwq:1,2016-03-10T09:45:00Z,30.3836,-88.4364,1.04,14.0,1111122 
NERRS,ioos:station:NOAA.NERRS:gndbcwq:1,2016-03-10T11:45:00Z,30.3836,-88.4364,0.98,14.6,1111122 
NERRS,ioos:station:NOAA.NERRS:gndbcwq:1,2016-03-10T12:45:00Z,30.3836,-88.4364,0.97,14.8,1111122 
NERRS,ioos:station:NOAA.NERRS:gndbcwq:1,2016-03-10T13:45:00Z,30.3836,-88.4364,0.96,15.1,1111122 
NERRS,ioos:station:NOAA.NERRS:gndbcwq:1,2016-03-10T14:45:00Z,30.3836,-88.4364,0.95,15.2,1111122 
NERRS,ioos:station:NOAA.NERRS:gndbcwq:1,2016-03-10T15:45:00Z,30.3836,-88.4364,0.97,15.1,1111122 
NERRS,ioos:station:NOAA.NERRS:gndbcwq:1,2016-03-10T16:45:00Z,30.3836,-88.4364,0.98,15.1,1111122 
NERRS,ioos:station:NOAA.NERRS:gndbcwq:1,2016-03-10T17:45:00Z,30.3836,-88.4364,0.95,15.2,1111122 
NERRS,ioos:station:NOAA.NERRS:gndbcwq:1,2016-03-10T18:45:00Z,30.3836,-88.4364,0.89,15.4,1111122 
NERRS,ioos:station:NOAA.NERRS:gndbcwq:1,2016-03-10T19:45:00Z,30.3836,-88.4364,0.86,15.4,1111122 
NERRS,ioos:station:NOAA.NERRS:gndbcwq:1,2016-03-10T20:45:00Z,30.3836,-88.4364,0.84,15.4,1111122 
NERRS,ioos:station:NOAA.NERRS:gndbcwq:1,2016-03-10T21:45:00Z,30.3836,-88.4364,0.81,15.4,1111122 
NERRS,ioos:station:NOAA.NERRS:gndbcwq:1,2016-03-10T22:45:00Z,30.3836,-88.4364,0.77,15.4,1111122 
NERRS,ioos:station:NOAA.NERRS:gndbcwq:1,2016-03-10T23:45:00Z,30.3836,-88.4364,0.74,15.4,1111122 
NERRS,ioos:station:NOAA.NERRS:gndbcwq:1,2016-03-11T00:45:00Z,30.3836,-88.4364,0.74,15.4,1111122 
NERRS,ioos:station:NOAA.NERRS:gndbcwq:1,2016-03-11T01:45:00Z,30.3836,-88.4364,0.77,15.4,1111122 
NERRS,ioos:station:NOAA.NERRS:gndbcwq:1,2016-03-11T02:45:00Z,30.3836,-88.4364,0.81,15.4,1111122 
NERRS,ioos:station:NOAA.NERRS:gndbcwq:1,2016-03-11T03:45:00Z,30.3836,-88.4364,0.84,15.4,1111122 
NERRS,ioos:station:NOAA.NERRS:gndbcwq:1,2016-03-11T04:45:00Z,30.3836,-88.4364,0.88,15.4,1111122 
NERRS,ioos:station:NOAA.NERRS:gndbcwq:1,2016-03-11T05:45:00Z,30.3836,-88.4364,0.9,15.4,1111122 
NERRS,ioos:station:NOAA.NERRS:gndbcwq:1,2016-03-11T06:45:00Z,30.3836,-88.4364,0.9,15.5,1111122 
NERRS,ioos:station:NOAA.NERRS:gndbcwq:1,2016-03-11T07:45:00Z,30.3836,-88.4364,0.89,15.4,1111122 
NERRS,ioos:station:NOAA.NERRS:gndbcwq:1,2016-03-11T09:45:00Z,30.3836,-88.4364,0.9,15.4,1111122 
NERRS,ioos:station:NOAA.NERRS:gndbcwq:1,2016-03-11T10:45:00Z,30.3836,-88.4364,0.9,15.5,1111122 
NERRS,ioos:station:NOAA.NERRS:gndbcwq:1,2016-03-11T11:45:00Z,30.3836,-88.4364,0.92,15.4,1111122 
NERRS,ioos:station:NOAA.NERRS:gndbcwq:1,2016-03-11T12:45:00Z,30.3836,-88.4364,0.94,15.3,1111122 
NERRS,ioos:station:NOAA.NERRS:gndbcwq:1,2016-03-11T14:45:00Z,30.3836,-88.4364,0.94,15.3,1111122 
NERRS,ioos:station:NOAA.NERRS:gndbcwq:1,2016-03-11T15:45:00Z,30.3836,-88.4364,0.96,15.1,1111122 
NERRS,ioos:station:NOAA.NERRS:gndbcwq:1,2016-03-11T17:45:00Z,30.3836,-88.4364,0.85,14.6,1111122 
NERRS,ioos:station:NOAA.NERRS:gndbcwq:1,2016-03-11T19:45:00Z,30.3836,-88.4364,0.66,12.5,1111122 
NERRS,ioos:station:NOAA.NERRS:gndbcwq:1,2016-03-11T20:45:00Z,30.3836,-88.4364,0.59,12.3,1111122 
NERRS,ioos:station:NOAA.NERRS:gndbcwq:1,2016-03-11T22:45:00Z,30.3836,-88.4364,0.64,12.1,1111122 
NERRS,ioos:station:NOAA.NERRS:gndbcwq:1,2016-03-11T23:45:00Z,30.3836,-88.4364,0.61,12.0,1111122 
NERRS,ioos:station:NOAA.NERRS:gndbcwq:1,2016-03-12T00:45:00Z,30.3836,-88.4364,0.51,11.1,1111122 
NERRS,ioos:station:NOAA.NERRS:gndbcwq:1,2016-03-12T01:45:00Z,30.3836,-88.4364,0.44,9.6,1111122 
NERRS,ioos:station:NOAA.NERRS:gndbcwq:1,2016-03-12T02:45:00Z,30.3836,-88.4364,0.44,9.5,1111122 
NERRS,ioos:station:NOAA.NERRS:gndbcwq:1,2016-03-12T03:45:00Z,30.3836,-88.4364,0.58,9.9,1111122 
NERRS,ioos:station:NOAA.NERRS:gndbcwq:1,2016-03-12T06:45:00Z,30.3836,-88.4364,0.83,11.6,1111122 
NERRS,ioos:station:NOAA.NERRS:gndbcwq:1,2016-03-12T07:45:00Z,30.3836,-88.4364,0.89,12.4,1111122 
NERRS,ioos:station:NOAA.NERRS:gndbcwq:1,2016-03-12T09:45:00Z,30.3836,-88.4364,0.96,11.1,1111122 
NERRS,ioos:station:NOAA.NERRS:gndbcwq:1,2016-03-12T10:45:00Z,30.3836,-88.4364,0.97,10.9,1111122 
NERRS,ioos:station:NOAA.NERRS:gndbcwq:1,2016-03-12T11:45:00Z,30.3836,-88.4364,0.91,11.2,1111122 
NERRS,ioos:station:NOAA.NERRS:gndbcwq:1,2016-03-12T12:45:00Z,30.3836,-88.4364,0.92,11.6,1111122 
NERRS,ioos:station:NOAA.NERRS:gndbcwq:1,2016-03-12T14:45:00Z,30.3836,-88.4364,0.85,11.5,1111122 
NERRS,ioos:station:NOAA.NERRS:gndbcwq:1,2016-03-12T15:45:00Z,30.3836,-88.4364,0.8,11.6,1111122 
NERRS,ioos:station:NOAA.NERRS:gndbcwq:1,2016-03-12T17:45:00Z,30.3836,-88.4364,0.94,11.4,1111122 
NERRS,ioos:station:NOAA.NERRS:gndbcwq:1,2016-03-12T18:45:00Z,30.3836,-88.4364,0.91,11.4,1111122 
NERRS,ioos:station:NOAA.NERRS:gndbcwq:1,2016-03-12T20:45:00Z,30.3836,-88.4364,0.68,11.3,1111122 
NERRS,ioos:station:NOAA.NERRS:gndbcwq:1,2016-03-12T21:45:00Z,30.3836,-88.4364,0.62,9.4,1111122 
NERRS,ioos:station:NOAA.NERRS:gndbcwq:1,2016-03-12T22:45:00Z,30.3836,-88.4364,0.6,7.3,1111122 
NERRS,ioos:station:NOAA.NERRS:gndbcwq:1,2016-03-12T23:45:00Z,30.3836,-88.4364,0.53,5.8,1111122 
NERRS,ioos:station:NOAA.NERRS:gndbcwq:1,2016-03-13T00:45:00Z,30.3836,-88.4364,0.46,5.1,1111122 
NERRS,ioos:station:NOAA.NERRS:gndbcwq:1,2016-03-13T01:45:00Z,30.3836,-88.4364,0.4,4.4,1111122 
NERRS,ioos:station:NOAA.NERRS:gndbcwq:1,2016-03-13T02:45:00Z,30.3836,-88.4364,0.44,4.8,1111122 
NERRS,ioos:station:NOAA.NERRS:gndbcwq:1,2016-03-13T03:45:00Z,30.3836,-88.4364,0.48,4.2,1111122 
NERRS,ioos:station:NOAA.NERRS:gndbcwq:1,2016-03-13T04:45:00Z,30.3836,-88.4364,0.47,3.7,1111122 
NERRS,ioos:station:NOAA.NERRS:gndbcwq:1,2016-03-13T06:45:00Z,30.3836,-88.4364,0.4,3.3,1111122 
NERRS,ioos:station:NOAA.NERRS:gndbcwq:1,2016-03-13T07:45:00Z,30.3836,-88.4364,0.48,4.7,1111122 
NERRS,ioos:station:NOAA.NERRS:gndbcwq:1,2016-03-13T08:45:00Z,30.3836,-88.4364,0.57,5.0,1111122 
NERRS,ioos:station:NOAA.NERRS:gndbcwq:1,2016-03-13T13:45:00Z,30.3836,-88.4364,0.67,5.1,1111122 
NERRS,ioos:station:NOAA.NERRS:gndbcwq:1,2016-03-13T14:45:00Z,30.3836,-88.4364,0.71,6.5,1111122 
NERRS,ioos:station:NOAA.NERRS:gndbcwq:1,2016-03-13T15:45:00Z,30.3836,-88.4364,0.74,7.5,1111122 
NERRS,ioos:station:NOAA.NERRS:gndbcwq:1,2016-03-13T16:45:00Z,30.3836,-88.4364,0.78,9.1,1111122 
NERRS,ioos:station:NOAA.NERRS:gndbcwq:1,2016-03-13T18:45:00Z,30.3836,-88.4364,0.77,9.7,1111122 
NERRS,ioos:station:NOAA.NERRS:gndbcwq:1,2016-03-13T19:45:00Z,30.3836,-88.4364,0.74,9.3,1111122 
NERRS,ioos:station:NOAA.NERRS:gndbcwq:1,2016-03-13T20:45:00Z,30.3836,-88.4364,0.72,8.8,1111122 
NERRS,ioos:station:NOAA.NERRS:gndbcwq:1,2016-03-13T21:45:00Z,30.3836,-88.4364,0.71,7.5,1111122 
NERRS,ioos:station:NOAA.NERRS:gndbcwq:1,2016-03-13T22:45:00Z,30.3836,-88.4364,0.7,5.0,1111122 
NERRS,ioos:station:NOAA.NERRS:gndbcwq:1,2016-03-13T23:45:00Z,30.3836,-88.4364,0.65,5.4,1111122 
NERRS,ioos:station:NOAA.NERRS:gndbcwq:1,2016-03-14T00:45:00Z,30.3836,-88.4364,0.6,4.7,1111122 
NERRS,ioos:station:NOAA.NERRS:gndbcwq:1,2016-03-14T02:45:00Z,30.3836,-88.4364,0.51,3.4,1111122 
NERRS,ioos:station:NOAA.NERRS:gndbcwq:1,2016-03-14T03:45:00Z,30.3836,-88.4364,0.49,2.8,1111122 
NERRS,ioos:station:NOAA.NERRS:gndbcwq:1,2016-03-14T04:45:00Z,30.3836,-88.4364,0.48,2.5,1111122 
NERRS,ioos:station:NOAA.NERRS:gndbcwq:1,2016-03-14T05:45:00Z,30.3836,-88.4364,0.48,2.8,1111122 
NERRS,ioos:station:NOAA.NERRS:gndbcwq:1,2016-03-14T07:45:00Z,30.3836,-88.4364,0.5,2.6,1111122 
NERRS,ioos:station:NOAA.NERRS:gndbcwq:1,2016-03-14T08:45:00Z,30.3836,-88.4364,0.5,2.1,1111122 
NERRS,ioos:station:NOAA.NERRS:gndbcwq:1,2016-03-14T09:45:00Z,30.3836,-88.4364,0.51,2.0,1111122 
NERRS,ioos:station:NOAA.NERRS:gndbcwq:1,2016-03-14T11:45:00Z,30.3836,-88.4364,0.6,3.4,1111122 
NERRS,ioos:station:NOAA.NERRS:gndbcwq:1,2016-03-14T12:45:00Z,30.3836,-88.4364,0.63,3.9,1111122 
NERRS,ioos:station:NOAA.NERRS:gndbcwq:1,2016-03-14T14:45:00Z,30.3836,-88.4364,0.7,5.2,1111122 
NERRS,ioos:station:NOAA.NERRS:gndbcwq:1,2016-03-14T15:45:00Z,30.3836,-88.4364,0.72,5.6,1111122 
NERRS,ioos:station:NOAA.NERRS:gndbcwq:1,2016-03-14T20:45:00Z,30.3836,-88.4364,0.66,4.2,1111122 
NERRS,ioos:station:NOAA.NERRS:gndbcwq:1,2016-03-14T21:45:00Z,30.3836,-88.4364,0.62,4.6,1111122 
NERRS,ioos:station:NOAA.NERRS:gndbcwq:1,2016-03-14T22:45:00Z,30.3836,-88.4364,0.59,4.2,1111122 
NERRS,ioos:station:NOAA.NERRS:gndbcwq:1,2016-03-14T23:45:00Z,30.3836,-88.4364,0.55,3.3,1111122 
NERRS,ioos:station:NOAA.NERRS:gndbcwq:1,2016-03-15T00:45:00Z,30.3836,-88.4364,0.47,2.8,1111122 
NERRS,ioos:station:NOAA.NERRS:gndbcwq:1,2016-03-15T02:45:00Z,30.3836,-88.4364,0.34,2.0,1111122 
NERRS,ioos:station:NOAA.NERRS:gndbcwq:1,2016-03-15T03:45:00Z,30.3836,-88.4364,0.32,1.6,1111122 
NERRS,ioos:station:NOAA.NERRS:gndbcwq:1,2016-03-15T04:45:00Z,30.3836,-88.4364,0.32,1.5,1111122 
NERRS,ioos:station:NOAA.NERRS:gndbcwq:1,2016-03-15T05:45:00Z,30.3836,-88.4364,0.27,1.2,1111122 
NERRS,ioos:station:NOAA.NERRS:gndbcwq:1,2016-03-15T07:45:00Z,30.3836,-88.4364,0.25,1.2,1111122 
NERRS,ioos:station:NOAA.NERRS:gndbcwq:1,2016-03-15T08:45:00Z,30.3836,-88.4364,0.28,1.2,1111122 
NERRS,ioos:station:NOAA.NERRS:gndbcwq:1,2016-03-15T09:45:00Z,30.3836,-88.4364,0.34,1.5,1111122 
NERRS,ioos:station:NOAA.NERRS:gndbcwq:1,2016-03-15T10:45:00Z,30.3836,-88.4364,0.38,1.7,1111122 
NERRS,ioos:station:NOAA.NERRS:gndbcwq:1,2016-03-15T11:45:00Z,30.3836,-88.4364,0.44,2.0,1111122 
NERRS,ioos:station:NOAA.NERRS:gndbcwq:1,2016-03-15T12:45:00Z,30.3836,-88.4364,0.49,2.2,1111122 
NERRS,ioos:station:NOAA.NERRS:gndbcwq:1,2016-03-15T13:45:00Z,30.3836,-88.4364,0.54,2.7,1111122 
NERRS,ioos:station:NOAA.NERRS:gndbcwq:1,2016-03-15T14:45:00Z,30.3836,-88.4364,0.59,3.0,1111122 
NERRS,ioos:station:NOAA.NERRS:gndbcwq:1,2016-03-15T15:45:00Z,30.3836,-88.4364,0.63,3.5,1111122 
NERRS,ioos:station:NOAA.NERRS:gndbcwq:1,2016-03-15T16:45:00Z,30.3836,-88.4364,0.67,4.2,1111122 
NERRS,ioos:station:NOAA.NERRS:gndbcwq:1,2016-03-15T17:45:00Z,30.3836,-88.4364,0.7,4.7,1111122 